ACA522 CYYC-CYEG

Flight info

Callsign ACA522
Flight time 0h 27m
Altitude 24000
Route BITGA Q995 OILRS OILRS2
Aircraft A321/M-SDE3FGHIRWY/LB1

Departure

Time 2026-04-29 00:46
Airport Calgary International Airport (CYYC)

Arrival

Time 2026-04-29 01:14
Airport Edmonton International Airport (CYEG)
Time Latitude Longitude Altitude Speed Heading
2026-04-29 00:35 51.13069 -114.00046 3560 ft 0 kts 180°
2026-04-29 00:37 51.13082 -114.00046 3560 ft 3 kts 180°
2026-04-29 00:37 51.13102 -114.00046 3558 ft 3 kts 180°
2026-04-29 00:38 51.13122 -114.00046 3557 ft 3 kts 179°
2026-04-29 00:38 51.13142 -114.00046 3556 ft 3 kts 168°
2026-04-29 00:38 51.13161 -114.00056 3557 ft 3 kts 154°
2026-04-29 00:38 51.13179 -114.00070 3557 ft 2 kts 155°
2026-04-29 00:39 51.13184 -114.00073 3558 ft 0 kts 157°
2026-04-29 00:40 51.13173 -114.00058 3558 ft 5 kts 135°
2026-04-29 00:40 51.13161 -114.00008 3560 ft 5 kts 94°
2026-04-29 00:41 51.13161 -113.99956 3560 ft 5 kts 90°
2026-04-29 00:41 51.13161 -113.99905 3560 ft 5 kts 90°
2026-04-29 00:41 51.13161 -113.99786 3560 ft 13 kts 90°
2026-04-29 00:41 51.13161 -113.99639 3560 ft 13 kts 90°
2026-04-29 00:42 51.13157 -113.99491 3560 ft 13 kts 107°
2026-04-29 00:42 51.13046 -113.99445 3558 ft 21 kts 180°
2026-04-29 00:42 51.12903 -113.99444 3557 ft 21 kts 180°
2026-04-29 00:42 51.12761 -113.99444 3558 ft 22 kts 180°
2026-04-29 00:43 51.12581 -113.99446 3559 ft 27 kts 180°
2026-04-29 00:43 51.12398 -113.99445 3558 ft 26 kts 179°
2026-04-29 00:43 51.12215 -113.99446 3557 ft 26 kts 180°
2026-04-29 00:43 51.12036 -113.99445 3558 ft 25 kts 180°
2026-04-29 00:44 51.11861 -113.99444 3560 ft 25 kts 179°
2026-04-29 00:44 51.11690 -113.99444 3559 ft 24 kts 181°
2026-04-29 00:44 51.11522 -113.99445 3560 ft 24 kts 180°
2026-04-29 00:44 51.11357 -113.99447 3560 ft 23 kts 180°
2026-04-29 00:45 51.11196 -113.99446 3560 ft 23 kts 179°
2026-04-29 00:45 51.11054 -113.99416 3555 ft 17 kts 141°
2026-04-29 00:45 51.11032 -113.99238 3561 ft 16 kts 90°
2026-04-29 00:45 51.11039 -113.99076 3564 ft 13 kts 63°
2026-04-29 00:46 51.11168 -113.99037 3560 ft 37 kts
2026-04-29 00:46 51.11699 -113.99035 3562 ft 112 kts
2026-04-29 00:46 51.12673 -113.99036 3574 ft 163 kts
2026-04-29 00:46 51.13793 -113.99057 4340 ft 157 kts 359°
2026-04-29 00:47 51.14869 -113.99110 5226 ft 154 kts 359°
2026-04-29 00:47 51.15972 -113.99186 5846 ft 163 kts 358°
2026-04-29 00:47 51.17118 -113.99018 6416 ft 170 kts 15°
2026-04-29 00:47 51.18297 -113.98543 6865 ft 183 kts 11°
2026-04-29 00:48 51.19607 -113.98139 7141 ft 206 kts
2026-04-29 00:48 51.21109 -113.97701 7507 ft 232 kts
2026-04-29 00:48 51.22782 -113.97213 8037 ft 257 kts
2026-04-29 00:48 51.24606 -113.96666 8749 ft 273 kts
2026-04-29 00:49 51.26499 -113.96088 9696 ft 281 kts
2026-04-29 00:49 51.28457 -113.95485 10450 ft 295 kts
2026-04-29 00:49 51.30466 -113.94855 11528 ft 294 kts
2026-04-29 00:49 51.32466 -113.94220 12649 ft 293 kts
2026-04-29 00:50 51.34469 -113.93585 13766 ft 293 kts
2026-04-29 00:50 51.36451 -113.92961 14717 ft 295 kts
2026-04-29 00:50 51.38479 -113.92322 15595 ft 300 kts
2026-04-29 00:50 51.40540 -113.91663 16464 ft 305 kts
2026-04-29 00:51 51.42639 -113.90998 17339 ft 310 kts
2026-04-29 00:51 51.44768 -113.90320 18210 ft 315 kts
2026-04-29 00:51 51.46930 -113.89626 19004 ft 319 kts
2026-04-29 00:51 51.49124 -113.88925 19766 ft 323 kts
2026-04-29 00:52 51.51339 -113.88219 20537 ft 326 kts
2026-04-29 00:52 51.53545 -113.87517 21313 ft 329 kts
2026-04-29 00:52 51.55801 -113.86800 22093 ft 332 kts
2026-04-29 00:52 51.58078 -113.86075 22864 ft 335 kts
2026-04-29 00:53 51.60380 -113.85342 23625 ft 339 kts
2026-04-29 00:53 51.62722 -113.84597 24051 ft 350 kts
2026-04-29 00:53 51.65174 -113.83815 24166 ft 369 kts
2026-04-29 00:53 51.67757 -113.82990 24193 ft 388 kts
2026-04-29 00:54 51.70469 -113.82123 24194 ft 406 kts
2026-04-29 00:54 51.73293 -113.81216 24191 ft 419 kts
2026-04-29 00:54 51.76165 -113.80288 24194 ft 423 kts
2026-04-29 00:54 51.79053 -113.79351 24187 ft 424 kts
2026-04-29 00:55 51.81906 -113.78425 24185 ft 424 kts
2026-04-29 00:55 51.84798 -113.77486 24182 ft 424 kts
2026-04-29 00:55 51.87685 -113.76552 24176 ft 424 kts
2026-04-29 00:55 51.90579 -113.75620 24170 ft 424 kts
2026-04-29 00:56 51.93472 -113.74685 24160 ft 424 kts
2026-04-29 00:56 51.96362 -113.73746 24150 ft 424 kts
2026-04-29 00:56 51.99254 -113.72806 24140 ft 424 kts
2026-04-29 00:56 52.02143 -113.71866 24142 ft 424 kts
2026-04-29 00:57 52.05034 -113.70923 24135 ft 424 kts
2026-04-29 00:57 52.07923 -113.69975 24125 ft 424 kts
2026-04-29 00:57 52.10810 -113.69027 24131 ft 424 kts
2026-04-29 00:57 52.13702 -113.68079 24125 ft 423 kts
2026-04-29 00:58 52.16592 -113.67129 24124 ft 423 kts
2026-04-29 00:58 52.19439 -113.66193 24102 ft 428 kts
2026-04-29 00:58 52.22403 -113.65226 23861 ft 437 kts
2026-04-29 00:58 52.25402 -113.64322 23617 ft 439 kts
2026-04-29 00:59 52.28416 -113.63581 23350 ft 438 kts
2026-04-29 00:59 52.31433 -113.62957 23077 ft 436 kts
2026-04-29 00:59 52.34443 -113.62387 22752 ft 434 kts
2026-04-29 00:59 52.37431 -113.61826 21754 ft 431 kts
2026-04-29 01:00 52.40384 -113.61246 20937 ft 424 kts
2026-04-29 01:00 52.43293 -113.60643 20116 ft 419 kts
2026-04-29 01:00 52.46128 -113.60032 19314 ft 414 kts
2026-04-29 01:00 52.49006 -113.59396 18510 ft 410 kts
2026-04-29 01:01 52.51784 -113.58777 17677 ft 405 kts
2026-04-29 01:01 52.54553 -113.58164 16928 ft 398 kts
2026-04-29 01:01 52.57272 -113.57568 16206 ft 391 kts
2026-04-29 01:01 52.59951 -113.56984 15512 ft 385 kts
2026-04-29 01:02 52.62585 -113.56408 14842 ft 379 kts
2026-04-29 01:02 52.65175 -113.55841 14198 ft 373 kts
2026-04-29 01:02 52.67726 -113.55283 13527 ft 367 kts
2026-04-29 01:02 52.70232 -113.54736 12914 ft 360 kts
2026-04-29 01:03 52.72693 -113.54197 12139 ft 351 kts
2026-04-29 01:03 52.75065 -113.53674 10810 ft 340 kts
2026-04-29 01:03 52.77300 -113.53179 10221 ft 313 kts
2026-04-29 01:03 52.79355 -113.52725 9861 ft 284 kts
2026-04-29 01:04 52.81259 -113.52308 9448 ft 271 kts
2026-04-29 01:04 52.83116 -113.51903 9327 ft 268 kts
2026-04-29 01:04 52.84964 -113.51499 9179 ft 267 kts
2026-04-29 01:04 52.86806 -113.51097 9052 ft 267 kts
2026-04-29 01:05 52.88649 -113.50690 8917 ft 267 kts
2026-04-29 01:05 52.90488 -113.50283 8787 ft 266 kts
2026-04-29 01:05 52.92324 -113.49875 8656 ft 266 kts
2026-04-29 01:05 52.94159 -113.49467 8525 ft 266 kts
2026-04-29 01:06 52.95991 -113.49060 8391 ft 266 kts
2026-04-29 01:06 52.97821 -113.48655 8253 ft 265 kts
2026-04-29 01:06 52.99626 -113.48256 8120 ft 265 kts
2026-04-29 01:07 53.01612 -113.47810 7557 ft 260 kts
2026-04-29 01:07 53.03400 -113.47410 7048 ft 254 kts
2026-04-29 01:07 53.05045 -113.47041 6981 ft 226 kts
2026-04-29 01:07 53.06596 -113.46695 6925 ft 227 kts
2026-04-29 01:08 53.08171 -113.46346 6867 ft 229 kts
2026-04-29 01:08 53.09740 -113.45850 6789 ft 231 kts 18°
2026-04-29 01:08 53.11160 -113.44591 6513 ft 237 kts 36°
2026-04-29 01:08 53.12361 -113.42681 5833 ft 238 kts 44°
2026-04-29 01:09 53.13513 -113.40736 5270 ft 233 kts 44°
2026-04-29 01:09 53.14653 -113.38894 5074 ft 226 kts 36°
2026-04-29 01:09 53.16036 -113.37919 5018 ft 212 kts
2026-04-29 01:09 53.17459 -113.38193 4885 ft 206 kts 338°
2026-04-29 01:10 53.18600 -113.39529 4699 ft 199 kts 316°
2026-04-29 01:10 53.19563 -113.41136 4566 ft 191 kts 316°
2026-04-29 01:10 53.20477 -113.42661 4571 ft 178 kts 316°
2026-04-29 01:10 53.21319 -113.44062 4438 ft 165 kts 317°
2026-04-29 01:11 53.22101 -113.45360 4263 ft 153 kts 317°
2026-04-29 01:11 53.22825 -113.46563 4065 ft 143 kts 317°
2026-04-29 01:11 53.23510 -113.47701 3882 ft 139 kts 317°
2026-04-29 01:11 53.24194 -113.48839 3701 ft 139 kts 318°
2026-04-29 01:12 53.24877 -113.49975 3516 ft 138 kts 317°
2026-04-29 01:12 53.25555 -113.51103 3308 ft 138 kts 318°
2026-04-29 01:12 53.26230 -113.52227 3096 ft 137 kts 316°
2026-04-29 01:12 53.26898 -113.53362 2891 ft 137 kts 316°
2026-04-29 01:13 53.27557 -113.54479 2729 ft 136 kts 317°
2026-04-29 01:13 53.28223 -113.55574 2550 ft 134 kts 319°
2026-04-29 01:13 53.28872 -113.56644 2389 ft 131 kts 316°
2026-04-29 01:13 53.29451 -113.57604 2386 ft 93 kts 316°
2026-04-29 01:14 53.29784 -113.58158 2387 ft 53 kts 314°
2026-04-29 01:14 53.30034 -113.58579 2384 ft 49 kts 315°
2026-04-29 01:14 53.30212 -113.58843 2383 ft 25 kts 341°
2026-04-29 01:14 53.30385 -113.58853 2385 ft 25 kts 360°
2026-04-29 01:15 53.30529 -113.58843 2384 ft 17 kts 17°
2026-04-29 01:15 53.30594 -113.58708 2384 ft 12 kts 88°
2026-04-29 01:15 53.30579 -113.58615 2387 ft 7 kts 101°
2026-04-29 01:15 53.30589 -113.58549 2384 ft 5 kts 71°
2026-04-29 01:16 53.30597 -113.58514 2384 ft 2 kts 70°
2026-04-29 01:16 53.30602 -113.58491 2384 ft 1 kts 70°
2026-04-29 01:16 53.30602 -113.58487 2384 ft 0 kts 70°